Year,Month,Day,Hour,Minute,Value (Times are PST for windgust in km/hr)
2016,08,22,00,00,22.50
2016,08,22,00,01,27.40
2016,08,22,00,02,29.00
2016,08,22,00,03,33.80
2016,08,22,00,04,30.60
2016,08,22,00,05,24.20
2016,08,22,00,06,22.50
2016,08,22,00,07,19.30
2016,08,22,00,08,27.40
2016,08,22,00,09,20.90
2016,08,22,00,10,33.80
2016,08,22,00,11,27.40
2016,08,22,00,12,32.20
2016,08,22,00,13,35.40
2016,08,22,00,14,24.20
2016,08,22,00,15,27.40
2016,08,22,00,16,22.50
2016,08,22,00,17,37.00
2016,08,22,00,18,27.40
2016,08,22,00,19,29.00
2016,08,22,00,20,30.60
2016,08,22,00,21,24.20
2016,08,22,00,22,30.60
2016,08,22,00,23,29.00
2016,08,22,00,24,29.00
2016,08,22,00,25,22.50
2016,08,22,00,26,25.70
2016,08,22,00,27,30.60
2016,08,22,00,28,30.60
2016,08,22,00,29,30.60
2016,08,22,00,30,29.00
2016,08,22,00,31,32.20
2016,08,22,00,32,30.60
2016,08,22,00,33,37.00
2016,08,22,00,34,33.80
2016,08,22,00,35,27.40
2016,08,22,00,36,22.50
2016,08,22,00,37,24.20
2016,08,22,00,38,22.50
2016,08,22,00,39,25.70
2016,08,22,00,40,24.20
2016,08,22,00,41,29.00
2016,08,22,00,42,25.70
2016,08,22,00,43,29.00
2016,08,22,00,44,22.50
2016,08,22,00,45,22.50
2016,08,22,00,46,24.20
2016,08,22,00,47,24.20
2016,08,22,00,48,25.70
2016,08,22,00,49,19.30
2016,08,22,00,50,22.50
2016,08,22,00,51,20.90
2016,08,22,00,52,20.90
2016,08,22,00,53,20.90
2016,08,22,00,54,22.50
2016,08,22,00,55,22.50
2016,08,22,00,56,19.30
2016,08,22,00,57,20.90
2016,08,22,00,58,24.20
2016,08,22,00,59,25.70
2016,08,22,01,00,20.90
2016,08,22,01,01,27.40
2016,08,22,01,02,30.60
2016,08,22,01,03,32.20
2016,08,22,01,04,24.20
2016,08,22,01,05,25.70
2016,08,22,01,06,20.90
2016,08,22,01,07,30.60
2016,08,22,01,08,32.20
2016,08,22,01,09,24.20
2016,08,22,01,10,24.20
2016,08,22,01,11,29.00
2016,08,22,01,12,25.70
2016,08,22,01,13,27.40
2016,08,22,01,14,29.00
2016,08,22,01,15,29.00
2016,08,22,01,16,24.20
2016,08,22,01,17,20.90
2016,08,22,01,18,24.20
2016,08,22,01,19,29.00
2016,08,22,01,20,22.50
2016,08,22,01,21,25.70
2016,08,22,01,22,27.40
2016,08,22,01,23,35.40
2016,08,22,01,24,25.70
2016,08,22,01,25,29.00
2016,08,22,01,26,20.90
2016,08,22,01,27,19.30
2016,08,22,01,28,17.70
2016,08,22,01,29,19.30
2016,08,22,01,30,19.30
2016,08,22,01,31,20.90
2016,08,22,01,32,24.20
2016,08,22,01,33,20.90
2016,08,22,01,34,20.90
2016,08,22,01,35,19.30
2016,08,22,01,36,19.30
2016,08,22,01,37,20.90
2016,08,22,01,38,20.90
2016,08,22,01,39,19.30
2016,08,22,01,40,17.70
2016,08,22,01,41,17.70
2016,08,22,01,42,14.50
2016,08,22,01,43,24.20
2016,08,22,01,44,17.70
2016,08,22,01,45,25.70
2016,08,22,01,46,24.20
2016,08,22,01,47,20.90
2016,08,22,01,48,24.20
2016,08,22,01,49,19.30
2016,08,22,01,50,19.30
2016,08,22,01,51,20.90
2016,08,22,01,52,19.30
2016,08,22,01,53,20.90
2016,08,22,01,54,20.90
2016,08,22,01,55,20.90
2016,08,22,01,56,22.50
2016,08,22,01,57,19.30
2016,08,22,01,58,22.50
2016,08,22,01,59,20.90
2016,08,22,02,00,22.50
2016,08,22,02,01,19.30
2016,08,22,02,02,17.70
2016,08,22,02,03,17.70
2016,08,22,02,04,14.50
2016,08,22,02,05,16.10
2016,08,22,02,06,16.10
2016,08,22,02,07,11.30
2016,08,22,02,08,20.90
2016,08,22,02,09,20.90
2016,08,22,02,10,33.80
2016,08,22,02,11,32.20
2016,08,22,02,12,27.40
2016,08,22,02,13,20.90
2016,08,22,02,14,19.30
2016,08,22,02,15,14.50
2016,08,22,02,16,11.30
2016,08,22,02,17,16.10
2016,08,22,02,18,19.30
2016,08,22,02,19,16.10
2016,08,22,02,20,19.30
2016,08,22,02,21,19.30
2016,08,22,02,22,32.20
2016,08,22,02,23,32.20
2016,08,22,02,24,20.90
2016,08,22,02,25,27.40
2016,08,22,02,26,27.40
2016,08,22,02,27,24.20
2016,08,22,02,28,20.90
2016,08,22,02,29,20.90
2016,08,22,02,30,19.30
2016,08,22,02,31,17.70
2016,08,22,02,32,19.30
2016,08,22,02,33,25.70
2016,08,22,02,34,25.70
2016,08,22,02,35,19.30
2016,08,22,02,36,19.30
2016,08,22,02,37,22.50
2016,08,22,02,38,20.90
2016,08,22,02,39,22.50
2016,08,22,02,40,20.90
2016,08,22,02,41,20.90
2016,08,22,02,42,19.30
2016,08,22,02,43,20.90
2016,08,22,02,44,14.50
2016,08,22,02,45,17.70
2016,08,22,02,46,16.10
2016,08,22,02,47,17.70
2016,08,22,02,48,22.50
2016,08,22,02,49,20.90
2016,08,22,02,50,19.30
2016,08,22,02,51,20.90
2016,08,22,02,52,25.70
2016,08,22,02,53,19.30
2016,08,22,02,54,22.50
2016,08,22,02,55,22.50
2016,08,22,02,56,19.30
2016,08,22,02,57,19.30
2016,08,22,02,58,22.50
2016,08,22,02,59,22.50
2016,08,22,03,00,19.30
2016,08,22,03,01,24.20
2016,08,22,03,02,16.10
2016,08,22,03,03,19.30
2016,08,22,03,04,20.90
2016,08,22,03,05,14.50
2016,08,22,03,06,16.10
2016,08,22,03,07,16.10
2016,08,22,03,08,16.10
2016,08,22,03,09,14.50
2016,08,22,03,10,17.70
2016,08,22,03,11,19.30
2016,08,22,03,12,17.70
2016,08,22,03,13,22.50
2016,08,22,03,14,14.50
2016,08,22,03,15,20.90
2016,08,22,03,16,22.50
2016,08,22,03,17,19.30
2016,08,22,03,18,19.30
2016,08,22,03,19,19.30
2016,08,22,03,20,16.10
2016,08,22,03,21,14.50
2016,08,22,03,22,12.90
2016,08,22,03,23,19.30
2016,08,22,03,24,19.30
2016,08,22,03,25,17.70
2016,08,22,03,26,19.30
2016,08,22,03,27,17.70
2016,08,22,03,28,16.10
2016,08,22,03,29,20.90
2016,08,22,03,30,19.30
2016,08,22,03,31,19.30
2016,08,22,03,32,17.70
2016,08,22,03,33,17.70
2016,08,22,03,34,20.90
2016,08,22,03,35,16.10
2016,08,22,03,36,17.70
2016,08,22,03,37,17.70
2016,08,22,03,38,16.10
2016,08,22,03,39,16.10
2016,08,22,03,40,14.50
2016,08,22,03,41,17.70
2016,08,22,03,42,17.70
2016,08,22,03,43,19.30
2016,08,22,03,44,17.70
2016,08,22,03,45,11.30
2016,08,22,03,46,16.10
2016,08,22,03,47,12.90
2016,08,22,03,48,14.50
2016,08,22,03,49,16.10
2016,08,22,03,50,16.10
2016,08,22,03,51,16.10
2016,08,22,03,52,14.50
2016,08,22,03,53,14.50
2016,08,22,03,54,17.70
2016,08,22,03,55,11.30
2016,08,22,03,56,12.90
2016,08,22,03,57,11.30
2016,08,22,03,58,16.10
2016,08,22,03,59,16.10
2016,08,22,04,00,14.50
2016,08,22,04,01,11.30
2016,08,22,04,02,9.60
2016,08,22,04,03,6.40
2016,08,22,04,04,8.10
2016,08,22,04,05,8.10
2016,08,22,04,06,6.40
2016,08,22,04,07,9.60
2016,08,22,04,08,8.10
2016,08,22,04,09,8.10
2016,08,22,04,10,8.10
2016,08,22,04,11,11.30
2016,08,22,04,12,11.30
2016,08,22,04,13,11.30
2016,08,22,04,14,8.10
2016,08,22,04,15,8.10
2016,08,22,04,16,4.80
2016,08,22,04,17,8.10
2016,08,22,04,18,8.10
2016,08,22,04,19,4.80
2016,08,22,04,20,4.80
2016,08,22,04,21,8.10
2016,08,22,04,22,11.30
2016,08,22,04,23,11.30
2016,08,22,04,24,9.60
2016,08,22,04,25,8.10
2016,08,22,04,26,8.10
2016,08,22,04,27,14.50
2016,08,22,04,28,14.50
2016,08,22,04,29,11.30
2016,08,22,04,30,11.30
2016,08,22,04,31,11.30
2016,08,22,04,32,9.60
2016,08,22,04,33,14.50
2016,08,22,04,34,14.50
2016,08,22,04,35,9.60
2016,08,22,04,36,9.60
2016,08,22,04,37,9.60
2016,08,22,04,38,9.60
2016,08,22,04,39,9.60
2016,08,22,04,40,11.30
2016,08,22,04,41,9.60
2016,08,22,04,42,11.30
2016,08,22,04,43,14.50
2016,08,22,04,44,12.90
2016,08,22,04,45,9.60
2016,08,22,04,46,9.60
2016,08,22,04,47,9.60
2016,08,22,04,48,9.60
2016,08,22,04,49,11.30
2016,08,22,04,50,8.10
2016,08,22,04,51,8.10
2016,08,22,04,52,9.60
2016,08,22,04,53,14.50
2016,08,22,04,54,14.50
2016,08,22,04,55,11.30
2016,08,22,04,56,11.30
2016,08,22,04,57,11.30
2016,08,22,04,58,11.30
2016,08,22,04,59,16.10
2016,08,22,05,00,11.30
2016,08,22,05,01,12.90
2016,08,22,05,02,11.30
2016,08,22,05,03,16.10
2016,08,22,05,04,14.50
2016,08,22,05,05,17.70
2016,08,22,05,06,9.60
2016,08,22,05,07,11.30
2016,08,22,05,08,14.50
2016,08,22,05,09,12.90
2016,08,22,05,10,14.50
2016,08,22,05,11,17.70
2016,08,22,05,12,17.70
2016,08,22,05,13,22.50
2016,08,22,05,14,24.20
2016,08,22,05,15,17.70
2016,08,22,05,16,19.30
2016,08,22,05,17,11.30
2016,08,22,05,18,12.90
2016,08,22,05,19,11.30
2016,08,22,05,20,16.10
2016,08,22,05,21,16.10
2016,08,22,05,22,14.50
2016,08,22,05,23,19.30
2016,08,22,05,24,17.70
2016,08,22,05,25,17.70
2016,08,22,05,26,17.70
2016,08,22,05,27,11.30
2016,08,22,05,28,11.30
2016,08,22,05,29,16.10
2016,08,22,05,30,16.10
2016,08,22,05,31,17.70
2016,08,22,05,32,16.10
2016,08,22,05,33,14.50
2016,08,22,05,34,14.50
2016,08,22,05,35,14.50
2016,08,22,05,36,14.50
2016,08,22,05,37,11.30
2016,08,22,05,38,16.10
2016,08,22,05,39,17.70
2016,08,22,05,40,16.10
2016,08,22,05,41,11.30
2016,08,22,05,42,11.30
2016,08,22,05,43,14.50
2016,08,22,05,44,12.90
2016,08,22,05,45,12.90
2016,08,22,05,46,11.30
2016,08,22,05,47,11.30
2016,08,22,05,48,11.30
2016,08,22,05,49,9.60
2016,08,22,05,50,11.30
2016,08,22,05,51,9.60
2016,08,22,05,52,11.30
2016,08,22,05,53,11.30
2016,08,22,05,54,14.50
2016,08,22,05,55,11.30
2016,08,22,05,56,9.60
2016,08,22,05,57,9.60
2016,08,22,05,58,8.10
2016,08,22,05,59,6.40
2016,08,22,06,00,4.80
2016,08,22,06,01,4.80
2016,08,22,06,02,4.80
2016,08,22,06,03,6.40
2016,08,22,06,04,4.80
2016,08,22,06,05,6.40
2016,08,22,06,06,6.40
2016,08,22,06,07,6.40
2016,08,22,06,08,6.40
2016,08,22,06,09,4.80
2016,08,22,06,10,4.80
2016,08,22,06,11,6.40
2016,08,22,06,12,3.20
2016,08,22,06,13,4.80
2016,08,22,06,14,4.80
2016,08,22,06,15,4.80
2016,08,22,06,16,3.20
2016,08,22,06,17,1.60
2016,08,22,06,18,1.60
2016,08,22,06,20,1.60
2016,08,22,06,21,1.60
2016,08,22,06,22,1.60
2016,08,22,06,23,3.20
2016,08,22,06,24,3.20
2016,08,22,06,25,3.20
2016,08,22,06,26,4.80
2016,08,22,06,27,3.20
2016,08,22,06,28,3.20
2016,08,22,06,29,1.60
2016,08,22,06,39,1.60
2016,08,22,06,40,1.60
2016,08,22,06,44,1.60
2016,08,22,06,45,1.60
2016,08,22,06,46,1.60
2016,08,22,06,47,1.60
2016,08,22,06,48,1.60
2016,08,22,06,49,1.60
2016,08,22,06,50,1.60
2016,08,22,06,52,1.60
2016,08,22,06,53,3.20
2016,08,22,06,54,3.20
2016,08,22,06,55,3.20
2016,08,22,06,56,3.20
2016,08,22,06,57,3.20
2016,08,22,06,58,3.20
2016,08,22,07,01,1.60
2016,08,22,07,02,1.60
2016,08,22,07,04,3.20
2016,08,22,07,05,3.20
2016,08,22,07,06,3.20
2016,08,22,07,07,3.20
2016,08,22,07,08,4.80
2016,08,22,07,09,3.20
2016,08,22,07,10,4.80
2016,08,22,07,11,6.40
2016,08,22,07,12,6.40
2016,08,22,07,13,9.60
2016,08,22,07,14,8.10
2016,08,22,07,15,6.40
2016,08,22,07,16,6.40
2016,08,22,07,17,3.20
2016,08,22,07,18,4.80
2016,08,22,07,19,6.40
2016,08,22,07,20,3.20
2016,08,22,07,21,4.80
2016,08,22,07,22,4.80
2016,08,22,07,23,6.40
2016,08,22,07,24,8.10
2016,08,22,07,25,6.40
2016,08,22,07,26,4.80
2016,08,22,07,27,6.40
2016,08,22,07,28,8.10
2016,08,22,07,29,9.60
2016,08,22,07,30,11.30
2016,08,22,07,31,6.40
2016,08,22,07,32,8.10
2016,08,22,07,33,8.10
2016,08,22,07,34,8.10
2016,08,22,07,35,6.40
2016,08,22,07,36,9.60
2016,08,22,07,37,9.60
2016,08,22,07,38,9.60
2016,08,22,07,39,16.10
2016,08,22,07,40,17.70
2016,08,22,07,41,12.90
2016,08,22,07,42,9.60
2016,08,22,07,43,11.30
2016,08,22,07,44,9.60
2016,08,22,07,45,9.60
2016,08,22,07,46,6.40
2016,08,22,07,47,9.60
2016,08,22,07,48,9.60
2016,08,22,07,49,16.10
2016,08,22,07,50,11.30
2016,08,22,07,51,11.30
2016,08,22,07,52,9.60
2016,08,22,07,53,11.30
2016,08,22,07,54,9.60
2016,08,22,07,55,12.90
2016,08,22,07,56,19.30
2016,08,22,07,57,19.30
2016,08,22,07,58,20.90
2016,08,22,07,59,17.70
2016,08,22,08,00,17.70
2016,08,22,08,01,16.10
2016,08,22,08,02,16.10
2016,08,22,08,03,16.10
2016,08,22,08,04,17.70
2016,08,22,08,05,19.30
2016,08,22,08,06,19.30
2016,08,22,08,07,11.30
2016,08,22,08,08,14.50
2016,08,22,08,09,14.50
2016,08,22,08,10,17.70
2016,08,22,08,11,16.10
2016,08,22,08,12,11.30
2016,08,22,08,13,16.10
2016,08,22,08,14,20.90
2016,08,22,08,15,17.70
2016,08,22,08,16,17.70
2016,08,22,08,17,16.10
2016,08,22,08,18,16.10
2016,08,22,08,19,11.30
2016,08,22,08,20,16.10
2016,08,22,08,21,20.90
2016,08,22,08,22,12.90
2016,08,22,08,23,8.10
2016,08,22,08,24,12.90
2016,08,22,08,25,14.50
2016,08,22,08,26,11.30
2016,08,22,08,27,16.10
2016,08,22,08,28,9.60
2016,08,22,08,29,11.30
2016,08,22,08,30,9.60
2016,08,22,08,31,8.10
2016,08,22,08,32,9.60
2016,08,22,08,33,8.10
2016,08,22,08,34,11.30
2016,08,22,08,35,16.10
2016,08,22,08,36,12.90
2016,08,22,08,37,16.10
2016,08,22,08,38,14.50
2016,08,22,08,39,14.50
2016,08,22,08,40,11.30
2016,08,22,08,41,11.30
2016,08,22,08,42,11.30
2016,08,22,08,43,16.10
2016,08,22,08,44,9.60
2016,08,22,08,45,9.60
2016,08,22,08,46,12.90
2016,08,22,08,47,11.30
2016,08,22,08,48,11.30
2016,08,22,08,49,11.30
2016,08,22,08,50,11.30
2016,08,22,08,51,12.90
2016,08,22,08,52,12.90
2016,08,22,08,53,12.90
2016,08,22,08,54,8.10
2016,08,22,08,55,9.60
2016,08,22,08,56,14.50
2016,08,22,08,57,14.50
2016,08,22,08,58,11.30
2016,08,22,08,59,11.30
2016,08,22,09,00,11.30
2016,08,22,09,01,8.10
2016,08,22,09,02,9.60
2016,08,22,09,03,8.10
2016,08,22,09,04,8.10
2016,08,22,09,05,16.10
2016,08,22,09,06,9.60
2016,08,22,09,07,9.60
2016,08,22,09,08,14.50
2016,08,22,09,09,6.40
2016,08,22,09,10,9.60
2016,08,22,09,11,11.30
2016,08,22,09,12,8.10
2016,08,22,09,13,8.10
2016,08,22,09,14,8.10
2016,08,22,09,15,6.40
2016,08,22,09,16,6.40
2016,08,22,09,17,1.60
2016,08,22,09,18,6.40
2016,08,22,09,19,9.60
2016,08,22,09,20,8.10
2016,08,22,09,21,8.10
2016,08,22,09,22,8.10
2016,08,22,09,23,8.10
2016,08,22,09,24,4.80
2016,08,22,09,25,4.80
2016,08,22,09,26,6.40
2016,08,22,09,27,3.20
2016,08,22,09,28,6.40
2016,08,22,09,29,11.30
2016,08,22,09,30,14.50
2016,08,22,09,31,17.70
2016,08,22,09,32,16.10
2016,08,22,09,33,14.50
2016,08,22,09,34,16.10
2016,08,22,09,35,12.90
2016,08,22,09,36,12.90
2016,08,22,09,37,17.70
2016,08,22,09,38,17.70
2016,08,22,09,39,16.10
2016,08,22,09,40,14.50
2016,08,22,09,41,20.90
2016,08,22,09,42,20.90
2016,08,22,09,43,22.50
2016,08,22,09,44,25.70
2016,08,22,09,45,22.50
2016,08,22,09,46,24.20
2016,08,22,09,47,24.20
2016,08,22,09,48,22.50
2016,08,22,09,49,22.50
2016,08,22,09,50,19.30
2016,08,22,09,51,22.50
2016,08,22,09,52,20.90
2016,08,22,09,53,19.30
2016,08,22,09,54,20.90
2016,08,22,09,55,25.70
2016,08,22,09,56,19.30
2016,08,22,09,57,20.90
2016,08,22,09,58,14.50
2016,08,22,09,59,14.50
2016,08,22,10,00,19.30
2016,08,22,10,01,22.50
2016,08,22,10,02,16.10
2016,08,22,10,03,20.90
2016,08,22,10,04,19.30
2016,08,22,10,05,20.90
2016,08,22,10,06,22.50
2016,08,22,10,07,20.90
2016,08,22,10,08,19.30
2016,08,22,10,09,19.30
2016,08,22,10,10,20.90
2016,08,22,10,11,16.10
2016,08,22,10,12,16.10
2016,08,22,10,13,17.70
2016,08,22,10,14,22.50
2016,08,22,10,15,22.50
2016,08,22,10,16,17.70
2016,08,22,10,17,19.30
2016,08,22,10,18,20.90
2016,08,22,10,19,19.30
2016,08,22,10,20,19.30
2016,08,22,10,21,20.90
2016,08,22,10,22,19.30
2016,08,22,10,23,16.10
2016,08,22,10,24,12.90
2016,08,22,10,25,11.30
2016,08,22,10,26,17.70
2016,08,22,10,27,19.30
2016,08,22,10,28,12.90
2016,08,22,10,29,16.10
2016,08,22,10,30,17.70
2016,08,22,10,31,17.70
2016,08,22,10,32,19.30
2016,08,22,10,33,17.70
2016,08,22,10,34,16.10
2016,08,22,10,35,19.30
2016,08,22,10,36,20.90
2016,08,22,10,37,16.10
2016,08,22,10,38,16.10
2016,08,22,10,39,22.50
2016,08,22,10,40,22.50
2016,08,22,10,41,19.30
2016,08,22,10,42,16.10
2016,08,22,10,43,11.30
2016,08,22,10,44,20.90
2016,08,22,10,45,19.30
2016,08,22,10,46,14.50
2016,08,22,10,47,14.50
2016,08,22,10,48,16.10
2016,08,22,10,49,14.50
2016,08,22,10,50,14.50
2016,08,22,10,51,16.10
2016,08,22,10,52,17.70
2016,08,22,10,53,14.50
2016,08,22,10,54,17.70
2016,08,22,10,55,11.30
2016,08,22,10,56,19.30
2016,08,22,10,57,20.90
2016,08,22,10,58,17.70
2016,08,22,10,59,17.70
2016,08,22,11,00,17.70
2016,08,22,11,01,16.10
2016,08,22,11,02,17.70
2016,08,22,11,03,16.10
2016,08,22,11,04,16.10
2016,08,22,11,05,19.30
2016,08,22,11,06,16.10
2016,08,22,11,07,16.10
2016,08,22,11,08,22.50
2016,08,22,11,09,20.90
2016,08,22,11,10,22.50
2016,08,22,11,11,22.50
2016,08,22,11,12,20.90
2016,08,22,11,13,19.30
2016,08,22,11,14,11.30
2016,08,22,11,15,20.90
2016,08,22,11,16,22.50
2016,08,22,11,17,20.90
2016,08,22,11,18,27.40
2016,08,22,11,19,19.30
2016,08,22,11,20,27.40
2016,08,22,11,21,22.50
2016,08,22,11,22,19.30
2016,08,22,11,23,22.50
2016,08,22,11,24,22.50
2016,08,22,11,25,20.90
2016,08,22,11,26,22.50
2016,08,22,11,27,22.50
2016,08,22,11,28,20.90
2016,08,22,11,29,17.70
2016,08,22,11,30,22.50
2016,08,22,11,31,22.50
2016,08,22,11,32,24.20
2016,08,22,11,33,20.90
2016,08,22,11,34,24.20
2016,08,22,11,35,20.90
2016,08,22,11,36,14.50
2016,08,22,11,37,16.10
2016,08,22,11,38,19.30
2016,08,22,11,39,22.50
2016,08,22,11,40,22.50
2016,08,22,11,41,19.30
2016,08,22,11,42,20.90
2016,08,22,11,43,17.70
2016,08,22,11,44,16.10
2016,08,22,11,45,20.90
2016,08,22,11,46,22.50
2016,08,22,11,47,16.10
2016,08,22,11,48,19.30
2016,08,22,11,49,24.20
2016,08,22,11,50,22.50
2016,08,22,11,51,19.30
2016,08,22,11,52,16.10
2016,08,22,11,53,6.40
2016,08,22,11,54,20.90
2016,08,22,11,55,17.70
2016,08,22,11,56,22.50
2016,08,22,11,57,20.90
2016,08,22,11,58,19.30
2016,08,22,11,59,17.70
2016,08,22,12,00,14.50
2016,08,22,12,01,19.30
2016,08,22,12,02,20.90
2016,08,22,12,03,16.10
2016,08,22,12,04,19.30
2016,08,22,12,05,22.50
2016,08,22,12,06,16.10
2016,08,22,12,07,16.10
2016,08,22,12,08,19.30
2016,08,22,12,09,19.30
2016,08,22,12,10,17.70
2016,08,22,12,11,16.10
2016,08,22,12,12,20.90
2016,08,22,12,13,20.90
2016,08,22,12,14,20.90
2016,08,22,12,15,19.30
2016,08,22,12,16,22.50
2016,08,22,12,17,20.90
2016,08,22,12,18,20.90
2016,08,22,12,19,22.50
2016,08,22,12,20,20.90
2016,08,22,12,21,17.70
2016,08,22,12,22,17.70
2016,08,22,12,23,16.10
2016,08,22,12,24,12.90
2016,08,22,12,25,16.10
2016,08,22,12,26,16.10
2016,08,22,12,27,14.50
2016,08,22,12,28,9.60
2016,08,22,12,29,16.10
2016,08,22,12,30,16.10
2016,08,22,12,31,19.30
2016,08,22,12,32,14.50
2016,08,22,12,33,16.10
2016,08,22,12,34,17.70
2016,08,22,12,35,19.30
2016,08,22,12,36,19.30
2016,08,22,12,37,19.30
2016,08,22,12,38,20.90
2016,08,22,12,39,17.70
2016,08,22,12,40,17.70
2016,08,22,12,41,17.70
2016,08,22,12,42,14.50
2016,08,22,12,43,20.90
2016,08,22,12,44,19.30
2016,08,22,12,45,16.10
2016,08,22,12,46,16.10
2016,08,22,12,47,17.70
2016,08,22,12,48,17.70
2016,08,22,12,49,11.30
2016,08,22,12,50,19.30
2016,08,22,12,51,17.70
2016,08,22,12,52,16.10
2016,08,22,12,53,14.50
2016,08,22,12,54,11.30
2016,08,22,12,55,16.10
2016,08,22,12,56,16.10
2016,08,22,12,57,9.60
2016,08,22,12,58,11.30
2016,08,22,12,59,16.10
2016,08,22,13,00,19.30
2016,08,22,13,01,11.30
2016,08,22,13,02,17.70
2016,08,22,13,03,14.50
2016,08,22,13,04,17.70
2016,08,22,13,05,16.10
2016,08,22,13,06,8.10
2016,08,22,13,07,19.30
2016,08,22,13,08,14.50
2016,08,22,13,09,17.70
2016,08,22,13,10,19.30
2016,08,22,13,11,17.70
2016,08,22,13,12,19.30
2016,08,22,13,13,17.70
2016,08,22,13,14,12.90
2016,08,22,13,15,19.30
2016,08,22,13,16,16.10
2016,08,22,13,17,19.30
2016,08,22,13,18,19.30
2016,08,22,13,19,17.70
2016,08,22,13,20,16.10
2016,08,22,13,21,16.10
2016,08,22,13,22,19.30
2016,08,22,13,23,19.30
2016,08,22,13,24,22.50
2016,08,22,13,25,19.30
2016,08,22,13,26,17.70
2016,08,22,13,27,17.70
2016,08,22,13,28,17.70
2016,08,22,13,29,12.90
2016,08,22,13,30,19.30
2016,08,22,13,31,16.10
2016,08,22,13,32,17.70
2016,08,22,13,33,16.10
2016,08,22,13,34,16.10
2016,08,22,13,35,9.60
2016,08,22,13,36,19.30
2016,08,22,13,37,19.30
2016,08,22,13,38,17.70
2016,08,22,13,39,17.70
2016,08,22,13,40,17.70
2016,08,22,13,41,16.10
2016,08,22,13,42,17.70
2016,08,22,13,43,11.30
2016,08,22,13,44,14.50
2016,08,22,13,45,16.10
2016,08,22,13,46,20.90
2016,08,22,13,47,14.50
2016,08,22,13,48,17.70
2016,08,22,13,49,11.30
2016,08,22,13,50,16.10
2016,08,22,13,51,16.10
2016,08,22,13,52,19.30
2016,08,22,13,53,19.30
2016,08,22,13,54,19.30
2016,08,22,13,55,19.30
2016,08,22,13,56,14.50
2016,08,22,13,57,17.70
2016,08,22,13,58,17.70
2016,08,22,13,59,16.10
2016,08,22,14,00,19.30
2016,08,22,14,01,16.10
2016,08,22,14,02,14.50
2016,08,22,14,03,12.90
2016,08,22,14,04,17.70
2016,08,22,14,05,19.30
2016,08,22,14,06,19.30
2016,08,22,14,07,17.70
2016,08,22,14,08,17.70
2016,08,22,14,09,19.30
2016,08,22,14,10,17.70
2016,08,22,14,11,16.10
2016,08,22,14,12,16.10
2016,08,22,14,13,17.70
2016,08,22,14,14,24.20
2016,08,22,14,15,16.10
2016,08,22,14,16,16.10
2016,08,22,14,17,6.40
2016,08,22,14,18,17.70
2016,08,22,14,19,16.10
2016,08,22,14,20,16.10
2016,08,22,14,21,14.50
2016,08,22,14,22,12.90
2016,08,22,14,23,12.90
2016,08,22,14,24,17.70
2016,08,22,14,25,17.70
2016,08,22,14,26,17.70
2016,08,22,14,27,14.50
2016,08,22,14,28,17.70
2016,08,22,14,29,17.70
2016,08,22,14,30,9.60
2016,08,22,14,31,11.30
2016,08,22,14,32,17.70
2016,08,22,14,33,17.70
2016,08,22,14,34,17.70
2016,08,22,14,35,19.30
2016,08,22,14,36,17.70
2016,08,22,14,37,11.30
2016,08,22,14,38,8.10
2016,08,22,14,39,14.50
2016,08,22,14,40,16.10
2016,08,22,14,41,16.10
2016,08,22,14,42,16.10
2016,08,22,14,43,16.10
2016,08,22,14,44,16.10
2016,08,22,14,45,14.50
2016,08,22,14,46,16.10
2016,08,22,14,47,17.70
2016,08,22,14,48,16.10
2016,08,22,14,49,17.70
2016,08,22,14,50,16.10
2016,08,22,14,51,17.70
2016,08,22,14,52,11.30
2016,08,22,14,53,14.50
2016,08,22,14,54,14.50
2016,08,22,14,55,14.50
2016,08,22,14,56,16.10
2016,08,22,14,57,17.70
2016,08,22,14,58,16.10
2016,08,22,14,59,16.10
2016,08,22,15,00,17.70
2016,08,22,15,01,17.70
2016,08,22,15,02,17.70
2016,08,22,15,03,16.10
2016,08,22,15,04,17.70
2016,08,22,15,05,16.10
2016,08,22,15,06,14.50
2016,08,22,15,07,14.50
2016,08,22,15,08,19.30
2016,08,22,15,09,12.90
2016,08,22,15,10,16.10
2016,08,22,15,11,17.70
2016,08,22,15,12,19.30
2016,08,22,15,13,14.50
2016,08,22,15,14,17.70
2016,08,22,15,15,14.50
2016,08,22,15,16,14.50
2016,08,22,15,17,16.10
2016,08,22,15,18,14.50
2016,08,22,15,19,12.90
2016,08,22,15,20,16.10
2016,08,22,15,21,11.30
2016,08,22,15,22,14.50
2016,08,22,15,23,14.50
2016,08,22,15,24,11.30
2016,08,22,15,25,16.10
2016,08,22,15,26,16.10
2016,08,22,15,27,14.50
2016,08,22,15,28,16.10
2016,08,22,15,29,16.10
2016,08,22,15,30,14.50
2016,08,22,15,31,8.10
2016,08,22,15,32,16.10
2016,08,22,15,33,14.50
2016,08,22,15,34,17.70
2016,08,22,15,35,12.90
2016,08,22,15,36,11.30
2016,08,22,15,37,14.50
2016,08,22,15,38,14.50
2016,08,22,15,39,12.90
2016,08,22,15,40,11.30
2016,08,22,15,41,12.90
2016,08,22,15,42,6.40
2016,08,22,15,43,12.90
2016,08,22,15,44,14.50
2016,08,22,15,45,14.50
2016,08,22,15,46,16.10
2016,08,22,15,47,8.10
2016,08,22,15,48,17.70
2016,08,22,15,49,11.30
2016,08,22,15,50,16.10
2016,08,22,15,51,11.30
2016,08,22,15,52,9.60
2016,08,22,15,53,9.60
2016,08,22,15,54,11.30
2016,08,22,15,55,8.10
2016,08,22,15,56,9.60
2016,08,22,15,57,14.50
2016,08,22,15,58,14.50
2016,08,22,15,59,6.40
2016,08,22,16,00,11.30
2016,08,22,16,01,9.60
2016,08,22,16,02,11.30
2016,08,22,16,03,9.60
2016,08,22,16,04,8.10
2016,08,22,16,05,8.10
2016,08,22,16,06,12.90
2016,08,22,16,07,8.10
2016,08,22,16,08,8.10
2016,08,22,16,09,9.60
2016,08,22,16,10,8.10
2016,08,22,16,11,11.30
2016,08,22,16,12,9.60
2016,08,22,16,13,9.60
2016,08,22,16,14,14.50
2016,08,22,16,15,11.30
2016,08,22,16,16,17.70
2016,08,22,16,17,9.60
2016,08,22,16,18,16.10
2016,08,22,16,19,11.30
2016,08,22,16,20,11.30
2016,08,22,16,21,12.90
2016,08,22,16,22,8.10
2016,08,22,16,23,14.50
2016,08,22,16,24,16.10
2016,08,22,16,25,6.40
2016,08,22,16,26,11.30
2016,08,22,16,27,12.90
2016,08,22,16,28,9.60
2016,08,22,16,29,14.50
2016,08,22,16,30,6.40
2016,08,22,16,31,16.10
2016,08,22,16,32,11.30
2016,08,22,16,33,11.30
2016,08,22,16,34,8.10
2016,08,22,16,35,9.60
2016,08,22,16,36,9.60
2016,08,22,16,37,4.80
2016,08,22,16,38,6.40
2016,08,22,16,39,16.10
2016,08,22,16,40,16.10
2016,08,22,16,41,9.60
2016,08,22,16,42,9.60
2016,08,22,16,43,11.30
2016,08,22,16,44,14.50
2016,08,22,16,45,8.10
2016,08,22,16,46,9.60
2016,08,22,16,47,14.50
2016,08,22,16,48,11.30
2016,08,22,16,49,9.60
2016,08,22,16,50,17.70
2016,08,22,16,51,9.60
2016,08,22,16,52,8.10
2016,08,22,16,53,9.60
2016,08,22,16,54,17.70
2016,08,22,16,55,16.10
2016,08,22,16,56,9.60
2016,08,22,16,57,8.10
2016,08,22,16,58,4.80
2016,08,22,16,59,4.80
2016,08,22,17,00,11.30
2016,08,22,17,01,12.90
2016,08,22,17,02,11.30
2016,08,22,17,03,8.10
2016,08,22,17,04,9.60
2016,08,22,17,05,11.30
2016,08,22,17,06,14.50
2016,08,22,17,07,16.10
2016,08,22,17,08,11.30
2016,08,22,17,09,16.10
2016,08,22,17,10,17.70
2016,08,22,17,11,14.50
2016,08,22,17,12,19.30
2016,08,22,17,13,11.30
2016,08,22,17,14,11.30
2016,08,22,17,15,11.30
2016,08,22,17,16,14.50
2016,08,22,17,17,9.60
2016,08,22,17,18,16.10
2016,08,22,17,19,16.10
2016,08,22,17,20,9.60
2016,08,22,17,21,16.10
2016,08,22,17,22,12.90
2016,08,22,17,23,11.30
2016,08,22,17,24,14.50
2016,08,22,17,25,9.60
2016,08,22,17,26,6.40
2016,08,22,17,27,9.60
2016,08,22,17,28,14.50
2016,08,22,17,29,14.50
2016,08,22,17,30,16.10
2016,08,22,17,31,14.50
2016,08,22,17,32,11.30
2016,08,22,17,33,14.50
2016,08,22,17,34,11.30
2016,08,22,17,35,8.10
2016,08,22,17,36,6.40
2016,08,22,17,37,14.50
2016,08,22,17,38,11.30
2016,08,22,17,39,11.30
2016,08,22,17,40,11.30
2016,08,22,17,41,14.50
2016,08,22,17,42,8.10
2016,08,22,17,43,9.60
2016,08,22,17,44,12.90
2016,08,22,17,45,9.60
2016,08,22,17,46,4.80